Regional Weather Roundup
Issued by NWS

Home | Current Version | Previous Version | Text Only | Print | Product List | Glossary On
Versions: 1 2 3 4 5 6 7 8 9 10 11 12 13 14 15 16 17 18 19 20 21 22 23 24 25 26 27 28 29 30 31 32 33 34 35 36 37 38 39 40 41 42 43 44 45 46 47 48 49 50
000
ASUS43 KTOP 011408
RWRKS

WEATHER ROUNDUP FOR KANSAS
NATIONAL WEATHER SERVICE GOODLAND KS
900 AM CDT WED OCT 01 2014

NOTE:  "FAIR" INDICATES FEW OR NO CLOUDS BELOW 12,000 FEET WITH NO
SIGNIFICANT WEATHER AND/OR OBSTRUCTIONS TO VISIBILITY.

KSZ001>006-013>018-027>032-041>047-011500-
NORTHWEST KANSAS

CITY           SKY/WX    TMP DP  RH WIND       PRES   REMARKS
GOODLAND       SUNNY     52  46  80 NW5       29.87R
HAYS           CLOUDY    57  54  88 N9        29.78R VSB<1/4
HILL CITY      CLOUDY    60  59  96 N8        29.80R
RUSSELL        FOG       61  60  97 E3        29.75R VSB 1/4
$$

KSZ061>065-074>080-084>089-011500-
SOUTHWEST KANSAS

CITY           SKY/WX    TMP DP  RH WIND       PRES   REMARKS
DODGE CITY     SUNNY     60  45  57 N3        29.77R
GARDEN CITY    SUNNY     58  48  69 N8        29.79R
GREAT BEND     SUNNY     59  54  82 N6        29.76R
LIBERAL        SUNNY     61  45  55 NW13      29.79R
PRATT          SUNNY     64  61  88 SE5       29.75S
$$

KSZ066>073-081>083-090>101-011500-
SOUTHEAST KANSAS

CITY           SKY/WX    TMP DP  RH WIND       PRES   REMARKS
CHANUTE        LGT RAIN  68  65  90 S7        29.79F
COFFEYVILLE    CLOUDY    72  64  76 S10       29.77F
HUTCHINSON     SUNNY     70  65  84 SE5       29.75R
MEDICINE LODGE   N/A     69  64  84 E7        29.73R
NEWTON         MOSUNNY   66  61  82 S9        29.76F
PARSONS        LGT RAIN  70  65  84 SW3       29.80S
WICHITA INTL   MOSUNNY   72  63  73 S8        29.74S
WICHITA JABRA  PTSUNNY   72  63  73 S9        29.74F
WICHITA MCCONL SUNNY     71  66  82 SE12      29.74F
WINFIELD       MOSUNNY   70  66  87 SE9       29.76R
$$

KSZ007>012-019>026-033>040-048>060-102>105-011500-
NORTHEAST KANSAS

CITY           SKY/WX    TMP DP  RH WIND       PRES   REMARKS
CONCORDIA      FOG       62  62 100 NW8       29.76R VSB 1/2
EMPORIA        PTSUNNY   69  64  84 CALM      29.76R
LAWRENCE       PTSUNNY   66  63  90 E5        29.77S FOG
MANHATTAN      MOSUNNY   69  66  90 SW8       29.74R
MARYSVILLE     CLOUDY    66  64  94 S6        29.74R
OLATHE IND     PTSUNNY   68  63  84 S7        29.79S
OLATHE EXE     PTSUNNY   68  62  81 MISG      29.78S
SALINA         SUNNY     68  63  84 CALM      29.75R
TOPEKA BILLARD MOSUNNY   70  66  87 S9        29.75S
TOPEKA FORBES  PTSUNNY   69  65  86 S8        29.75S
$$


USA.gov is the U.S. government's official web portal to all federal, state and local government web resources and services.